When you browse on this site, cookies collect data to enhance your experience and personalize the content and advertising you see.
Visit our Privacy Policy to learn more. By continuing to use the site, you agree to this use of cookies and data.
  • In Österreich
  • Länderverzeichnis
  • Für 7 Tage
  • Wassertemperatur
  • Satellitenkarten
  • Wetterkarte
  • News
  • Widgets
  • user-avatar
    Anmelden

    Stündliche Wetter Joro

    Heute, 10 Dezember, Montag

    Zeit Temperatur Niederschläge Wind Luftdruck Luftfeuchtigkeit
    00:00 +19°C° 0 mm 0 m/S 701 mmHg 98%
    01:00 +18°C° 0 mm 0 m/S 701 mmHg 98%
    02:00 +18°C° 0 mm 0 m/S 701 mmHg 98%
    03:00 +20°C° 0 mm 1 m/S 701 mmHg 98%
    04:00 +20°C° 0 mm 1 m/S 701 mmHg 98%
    05:00 +20°C° 0 mm 1 m/S 701 mmHg 98%
    06:00 +18°C° 0 mm 0 m/S 701 mmHg 98%
    07:00 +21°C° 0 mm 1 m/S 702 mmHg 92%
    08:00 +22°C° 0 mm 1 m/S 702 mmHg 87%
    09:00 +24°C° 0 mm 1 m/S 703 mmHg 81%
    10:00 +25°C° 0.2 mm 1 m/S 703 mmHg 77%
    11:00 +25°C° 0.2 mm 2 m/S 703 mmHg 74%
    12:00 +26°C° 0.2 mm 2 m/S 702 mmHg 70%
    13:00 +26°C° 0.4 mm 2 m/S 702 mmHg 71%
    14:00 +26°C° 0.4 mm 2 m/S 702 mmHg 73%
    15:00 +26°C° 0.4 mm 2 m/S 701 mmHg 74%
    16:00 +24°C° 0.3 mm 2 m/S 701 mmHg 81%
    17:00 +23°C° 0.3 mm 2 m/S 701 mmHg 88%
    18:00 +21°C° 0.3 mm 1 m/S 701 mmHg 94%
    19:00 +21°C° 0.3 mm 1 m/S 702 mmHg 96%
    20:00 +21°C° 0.3 mm 1 m/S 702 mmHg 97%
    21:00 +21°C° 0.3 mm 1 m/S 703 mmHg 98%
    22:00 +21°C° 0.7 mm 1 m/S 703 mmHg 98%
    23:00 +21°C° 0.7 mm 1 m/S 703 mmHg 98%

    Morgen, 11 Dezember, Dienstag

    Zeit Temperatur Niederschläge Wind Luftdruck Luftfeuchtigkeit
    00:00 +21°C° 0.7 mm 1 m/S 703 mmHg 98%
    01:00 +21°C° 1.2 mm 1 m/S 703 mmHg 98%
    02:00 +21°C° 1.2 mm 1 m/S 703 mmHg 98%
    03:00 +21°C° 1.2 mm 1 m/S 702 mmHg 98%
    04:00 +21°C° 1.6 mm 1 m/S 703 mmHg 98%
    05:00 +21°C° 1.6 mm 1 m/S 703 mmHg 98%
    06:00 +21°C° 1.6 mm 1 m/S 703 mmHg 98%
    07:00 +21°C° 2.4 mm 1 m/S 704 mmHg 97%
    08:00 +21°C° 2.4 mm 1 m/S 704 mmHg 96%
    09:00 +22°C° 2.4 mm 1 m/S 705 mmHg 95%
    10:00 +21°C° 2.2 mm 2 m/S 704 mmHg 94%
    11:00 +21°C° 2.2 mm 2 m/S 704 mmHg 94%
    12:00 +21°C° 2.2 mm 2 m/S 704 mmHg 94%
    13:00 +20°C° 2.4 mm 2 m/S 703 mmHg 94%
    14:00 +20°C° 2.4 mm 2 m/S 703 mmHg 95%
    15:00 +20°C° 2.4 mm 1 m/S 702 mmHg 96%
    16:00 +20°C° 2.6 mm 1 m/S 702 mmHg 96%
    17:00 +20°C° 2.6 mm 1 m/S 702 mmHg 97%
    18:00 +20°C° 2.6 mm 1 m/S 703 mmHg 98%
    19:00 +19°C° 2.7 mm 1 m/S 703 mmHg 98%
    20:00 +19°C° 2.7 mm 1 m/S 703 mmHg 98%
    21:00 +19°C° 2.7 mm 1 m/S 704 mmHg 98%
    22:00 +19°C° 2.5 mm 1 m/S 703 mmHg 98%
    23:00 +19°C° 2.5 mm 1 m/S 703 mmHg 98%

    übermorgen, 12 Dezember, Mittwoch

    Zeit Temperatur Niederschläge Wind Luftdruck Luftfeuchtigkeit
    00:00 +19°C° 2.5 mm 1 m/S 703 mmHg 98%
    01:00 +19°C° 2.1 mm 1 m/S 702 mmHg 98%
    02:00 +19°C° 2.1 mm 1 m/S 702 mmHg 98%
    03:00 +19°C° 2.1 mm 1 m/S 702 mmHg 98%
    04:00 +19°C° 2.3 mm 1 m/S 702 mmHg 98%
    05:00 +20°C° 2.3 mm 1 m/S 702 mmHg 98%
    06:00 +20°C° 2.3 mm 1 m/S 702 mmHg 98%
    07:00 +20°C° 1.9 mm 1 m/S 702 mmHg 98%
    08:00 +20°C° 1.9 mm 1 m/S 703 mmHg 98%
    09:00 +20°C° 1.9 mm 1 m/S 704 mmHg 98%
    10:00 +20°C° 1.8 mm 1 m/S 703 mmHg 98%
    11:00 +20°C° 1.8 mm 1 m/S 703 mmHg 98%
    12:00 +20°C° 1.8 mm 1 m/S 702 mmHg 98%
    13:00 +20°C° 2.1 mm 1 m/S 701 mmHg 97%
    14:00 +20°C° 2.1 mm 1 m/S 701 mmHg 97%
    15:00 +18°C° 2.1 mm 0 m/S 700 mmHg 97%
    16:00 +18°C° 0.8 mm 0 m/S 700 mmHg 97%
    17:00 +18°C° 0.8 mm 0 m/S 701 mmHg 98%
    18:00 +18°C° 0.8 mm 0 m/S 701 mmHg 98%
    19:00 +18°C° 0.1 mm 0 m/S 701 mmHg 98%
    20:00 +17°C° 0.1 mm 0 m/S 701 mmHg 98%
    21:00 +17°C° 0.1 mm 0 m/S 702 mmHg 98%
    22:00 +17°C° 0 mm 0 m/S 702 mmHg 98%
    23:00 +17°C° 0 mm 0 m/S 701 mmHg 98%

    13 Dezember, Donnerstag

    Zeit Temperatur Niederschläge Wind Luftdruck Luftfeuchtigkeit
    00:00 +17°C° 0 mm 0 m/S 701 mmHg 98%
    01:00 +17°C° 0 mm 0 m/S 701 mmHg 98%
    02:00 +17°C° 0 mm 0 m/S 700 mmHg 98%
    03:00 +17°C° 0 mm 0 m/S 700 mmHg 98%
    04:00 +16°C° 0 mm 0 m/S 700 mmHg 98%
    05:00 +16°C° 0 mm 0 m/S 700 mmHg 98%
    06:00 +16°C° 0 mm 0 m/S 701 mmHg 98%
    07:00 +18°C° 0 mm 0 m/S 701 mmHg 92%
    08:00 +22°C° 0 mm 1 m/S 702 mmHg 86%
    09:00 +24°C° 0 mm 1 m/S 703 mmHg 80%
    10:00 +26°C° 0 mm 1 m/S 702 mmHg 70%
    11:00 +28°C° 0 mm 1 m/S 702 mmHg 60%
    12:00 +30°C° 0 mm 1 m/S 702 mmHg 50%
    13:00 +30°C° 0 mm 1 m/S 701 mmHg 51%
    14:00 +30°C° 0 mm 1 m/S 700 mmHg 52%
    15:00 +30°C° 0 mm 1 m/S 699 mmHg 54%
    16:00 +27°C° 0 mm 1 m/S 699 mmHg 64%
    17:00 +25°C° 0 mm 1 m/S 699 mmHg 75%
    18:00 +23°C° 0 mm 1 m/S 699 mmHg 86%
    19:00 +22°C° 0 mm 1 m/S 699 mmHg 88%
    20:00 +22°C° 0 mm 1 m/S 700 mmHg 91%
    21:00 +21°C° 0 mm 1 m/S 700 mmHg 93%
    22:00 +21°C° 0 mm 1 m/S 700 mmHg 94%
    23:00 +21°C° 0 mm 1 m/S 700 mmHg 94%

    14 Dezember, Freitag

    Zeit Temperatur Niederschläge Wind Luftdruck Luftfeuchtigkeit
    00:00 +20°C° 0 mm 1 m/S 700 mmHg 95%
    01:00 +20°C° 0 mm 1 m/S 700 mmHg 95%
    02:00 +20°C° 0 mm 1 m/S 699 mmHg 95%
    03:00 +20°C° 0 mm 1 m/S 699 mmHg 95%
    04:00 +20°C° 0 mm 1 m/S 699 mmHg 95%
    05:00 +19°C° 0 mm 1 m/S 700 mmHg 95%
    06:00 +19°C° 0 mm 1 m/S 700 mmHg 94%
    07:00 +20°C° 0 mm 0 m/S 701 mmHg 84%
    08:00 +23°C° 0 mm 0 m/S 702 mmHg 73%
    09:00 +25°C° 0 mm 0 m/S 703 mmHg 62%
    10:00 +29°C° 0 mm 1 m/S 702 mmHg 58%
    11:00 +30°C° 0 mm 1 m/S 702 mmHg 54%
    12:00 +31°C° 0 mm 1 m/S 702 mmHg 49%
    13:00 +29°C° 0.5 mm 2 m/S 701 mmHg 57%
    14:00 +28°C° 0.5 mm 2 m/S 700 mmHg 65%
    15:00 +27°C° 0.5 mm 2 m/S 700 mmHg 73%
    16:00 +25°C° 0.5 mm 2 m/S 700 mmHg 80%
    17:00 +23°C° 0.5 mm 2 m/S 700 mmHg 88%
    18:00 +22°C° 0.5 mm 1 m/S 701 mmHg 95%
    19:00 +21°C° 0.1 mm 1 m/S 701 mmHg 96%
    20:00 +21°C° 0.1 mm 1 m/S 702 mmHg 97%
    21:00 +20°C° 0.1 mm 1 m/S 703 mmHg 98%
    22:00 +20°C° 0.3 mm 1 m/S 702 mmHg 98%
    23:00 +20°C° 0.3 mm 1 m/S 702 mmHg 98%

    15 Dezember, Samstag

    Zeit Temperatur Niederschläge Wind Luftdruck Luftfeuchtigkeit
    00:00 +20°C° 0.3 mm 1 m/S 702 mmHg 98%
    01:00 +20°C° 0.6 mm 1 m/S 702 mmHg 98%
    02:00 +20°C° 0.6 mm 1 m/S 702 mmHg 98%
    03:00 +20°C° 0.6 mm 1 m/S 702 mmHg 98%
    04:00 +20°C° 1.5 mm 1 m/S 702 mmHg 98%
    05:00 +20°C° 1.5 mm 1 m/S 703 mmHg 98%
    06:00 +19°C° 1.5 mm 2 m/S 703 mmHg 98%
    07:00 +19°C° 1.7 mm 2 m/S 703 mmHg 97%
    08:00 +18°C° 1.7 mm 2 m/S 704 mmHg 96%
    09:00 +18°C° 1.7 mm 2 m/S 704 mmHg 96%
    10:00 +18°C° 0.6 mm 2 m/S 704 mmHg 96%
    11:00 +18°C° 0.6 mm 2 m/S 703 mmHg 96%
    12:00 +18°C° 0.6 mm 2 m/S 703 mmHg 96%
    13:00 +19°C° 0.1 mm 1 m/S 702 mmHg 93%
    14:00 +19°C° 0.1 mm 1 m/S 702 mmHg 90%
    15:00 +20°C° 0.1 mm 1 m/S 701 mmHg 88%
    16:00 +19°C° 0 mm 1 m/S 702 mmHg 90%
    17:00 +19°C° 0 mm 1 m/S 702 mmHg 92%
    18:00 +18°C° 0 mm 1 m/S 702 mmHg 94%
    19:00 +18°C° 0 mm 1 m/S 703 mmHg 95%
    20:00 +18°C° 0 mm 1 m/S 703 mmHg 96%
    21:00 +18°C° 0 mm 1 m/S 703 mmHg 96%
    22:00 +16°C° 0 mm 1 m/S 703 mmHg 96%
    23:00 +16°C° 0 mm 1 m/S 703 mmHg 96%
    Mehr zeigen